FW7576 Weather Reports


time (UTC)temp
F
wind
direction
speed
knots
gust
knots
rain 1hr
in
rain 24hr
in
rain mn
in
humidity
%
barometer
mb
20260509113036 53 252 6.1 9.6 0.00 0.00 0.00 82 1001.9
20260509111542 53 246 5.2 12.2 0.00 0.00 0.00 82 1001.7
20260509110049 53 240 6.1 10.4 0.00 0.00 0.00 82 1001.7
20260509104539 53 257 3.5 9.6 0.00 0.00 0.00 82 1001.5
20260509103041 53 271 4.3 7.8 0.00 0.00 0.00 81 1001.2
20260509101552 54 266 4.3 8.7 0.00 0.00 0.00 80 1001.1
20260509100038 54 243 5.2 8.7 0.00 0.00 0.00 80 1001.2
20260509094536 54 229 4.3 11.3 0.00 0.00 0.00 79 1001.4
20260509093036 54 253 4.3 13.9 0.00 0.00 0.00 79 1001.5
20260509091543 54 226 4.3 11.3 0.00 0.00 0.00 79 1001.5
20260509090038 54 260 3.5 11.3 0.00 0.00 0.00 79 1001.6
20260509084536 54 233 4.3 9.6 0.00 0.00 0.00 80 1001.4
20260509083035 54 210 5.2 10.4 0.00 0.00 0.00 81 1001.5
20260509081532 53 208 3.5 7.0 0.00 0.00 0.00 80 1001.4
20260509080043 54 200 4.3 7.8 0.00 0.00 0.00 80 1001.5
20260509074537 54 245 3.5 8.7 0.00 0.00 0.00 78 1001.7
20260509073044 54 222 4.3 9.6 0.00 0.00 0.00 77 1001.9
20260509071543 53 206 3.5 7.0 0.00 0.00 0.00 76 1001.9
20260509070044 53 213 2.6 7.8 0.00 0.00 0.00 75 1002.3
20260509064553 53 261 2.6 7.0 0.00 0.00 0.00 73 1002.5
20260509063038 53 225 2.6 6.1 0.00 0.00 0.00 72 1002.6
20260509061545 52 195 2.6 8.7 0.00 0.00 0.00 72 1002.9
20260509060036 52 252 2.6 7.0 0.00 0.00 0.00 73 1002.9
20260509054538 52 233 2.6 6.1 0.00 0.00 0.00 72 1003.3
20260509053039 52 195 1.7 6.1 0.00 0.00 0.00 73 1003.7
20260509051538 51 193 0.9 7.8 0.00 0.00 0.00 73 1003.9
20260509050037 51 224 0.9 5.2 0.00 0.00 0.00 73 1003.9
20260509044536 51 203 0.9 6.1 0.00 0.00 0.00 73 1003.8
20260509043039 51 245 1.7 7.0 0.00 0.00 0.00 73 1004.2
20260509041540 51 220 1.7 7.0 0.00 0.00 0.00 73 1004.0
20260509040043 51 236 1.7 4.3 0.00 0.00 0.00 73 1004.0
20260509034540 51 158 2.6 6.1 0.00 0.00 0.00 72 1004.2
20260509033044 52 175 1.7 6.1 0.00 0.00 0.00 71 1004.4
20260509031548 52 239 1.7 7.0 0.00 0.00 0.00 70 1004.4
20260509030040 52 217 2.6 7.0 0.00 0.00 0.00 69 1004.6
20260509024539 52 231 2.6 6.1 0.00 0.00 0.00 68 1004.6
20260509023039 52 233 1.7 6.1 0.00 0.00 0.00 66 1004.6
20260509021538 52 162 1.7 4.3 0.00 0.00 0.00 64 1004.7
20260509020038 53 214 1.7 4.3 0.00 0.00 0.00 62 1004.8
20260509014540 53 150 2.6 4.3 0.00 0.00 0.00 61 1004.9
20260509013035 54 162 1.7 4.3 0.00 0.00 0.00 60 1004.9
20260509011538 55 159 1.7 5.2 0.00 0.00 0.00 58 1004.9
20260509010044 56 148 0.9 4.3 0.00 0.00 0.00 55 1005.0
20260509004537 57 170 1.7 5.2 0.00 0.00 0.00 53 1005.0
20260509003042 58 200 2.6 7.8 0.00 0.00 0.00 52 1005.1
20260509001535 59 216 2.6 7.8 0.00 0.00 0.00 49 1005.0
20260509000043 60 130 3.5 10.4 0.00 0.00 0.00 47 1005.3
20260508234538 60 221 1.7 6.1 0.00 0.00 0.00 41 1005.3
20260508233038 59 150 2.6 7.0 0.00 0.00 0.00 38 1005.5
20260508231539 60 171 3.5 7.0 0.00 0.00 0.00 36 1005.5
20260508230044 61 172 3.5 11.3 0.00 0.00 0.00 36 1005.6
20260508224541 62 161 2.6 13.9 0.00 0.00 0.00 35 1005.7
20260508223035 63 184 3.5 13.0 0.00 0.00 0.00 33 1005.6
20260508221539 65 163 3.5 9.6 0.00 0.00 0.00 33 1005.6
20260508220110 64 211 3.5 7.0 0.00 0.00 0.00 31 1005.7
20260508214537 67 120 0.9 6.1 0.00 0.00 0.00 28 1005.7
20260508213041 68 233 2.6 11.3 0.00 0.00 0.00 23 1005.7
20260508211545 67 236 4.3 10.4 0.00 0.00 0.00 23 1005.8
20260508210039 68 252 4.3 8.7 0.00 0.00 0.00 22 1005.9
20260508204542 66 274 3.5 13.0 0.00 0.00 0.00 24 1006.2
20260508203038 66 214 4.3 9.6 0.00 0.00 0.00 24 1006.5
20260508201536 66 256 7.0 16.5 0.00 0.00 0.00 24 1006.8
20260508200043 66 264 4.3 13.9 0.00 0.00 0.00 24 1007.0
20260508194541 65 160 3.5 10.4 0.00 0.00 0.00 25 1007.2
20260508193040 66 253 5.2 12.2 0.00 0.00 0.00 25 1007.5
20260508191539 66 205 4.3 9.6 0.00 0.00 0.00 24 1007.4
20260508190041 65 257 7.0 15.6 0.00 0.00 0.00 25 1007.7
20260508184543 65 247 2.6 8.7 0.00 0.00 0.00 26 1008.0
20260508183044 64 237 4.3 10.4 0.00 0.00 0.00 26 1008.1
20260508181602 64 295 5.2 10.4 0.00 0.00 0.00 25 1008.2
20260508180046 64 177 2.6 8.7 0.00 0.00 0.00 26 1008.4
20260508174548 64 266 5.2 9.6 0.00 0.00 0.00 27 1008.8
20260508173037 63 226 5.2 13.0 0.00 0.00 0.00 27 1009.0
20260508171536 62 295 3.5 6.1 0.00 0.00 0.00 26 1009.2
20260508170043 62 245 1.7 7.0 0.00 0.00 0.00 26 1009.4
20260508164541 62 257 5.2 10.4 0.00 0.00 0.00 28 1009.6
20260508163038 61 248 1.7 6.1 0.00 0.00 0.00 27 1009.8
20260508161537 61 164 2.6 9.6 0.00 0.00 0.00 31 1010.1
20260508160036 60 204 3.5 7.8 0.00 0.00 0.00 31 1010.3
20260508154541 60 244 2.6 6.1 0.00 0.00 0.00 32 1010.4
20260508153043 59 181 2.6 7.0 0.00 0.00 0.00 38 1010.5
20260508151539 59 194 0.9 6.1 0.00 0.00 0.00 40 1010.6
20260508150039 58 211 2.6 7.0 0.00 0.00 0.00 41 1010.8
20260508144537 56 209 3.5 7.0 0.00 0.00 0.00 45 1010.5
20260508143036 55 227 2.6 7.8 0.00 0.00 0.00 51 1010.7
20260508141553 55 209 2.6 6.1 0.00 0.00 0.00 54 1010.7
20260508140041 53 220 2.6 6.1 0.00 0.00 0.00 57 1010.7
20260508134554 52 206 2.6 7.0 0.00 0.00 0.00 61 1010.9
20260508133038 51 243 1.7 4.3 0.00 0.00 0.00 67 1010.8
20260508131537 49 214 0.9 3.5 0.00 0.00 0.00 70 1011.0
20260508130041 46 153 1.7 5.2 0.00 0.00 0.00 75 1011.3
20260508124539 45 221 1.7 3.5 0.00 0.00 0.00 76 1011.1
20260508123040 44 229 0.9 4.3 0.00 0.00 0.00 77 1011.3
20260508121541 43 261 0.0 3.5 0.00 0.00 0.00 79 1011.4
20260508120035 41 237 0.9 2.6 0.00 0.00 0.00 82 1011.3
20260508114548 39 226 0.9 2.6 0.00 0.00 0.00 85 1011.0